Location: Malanoce
(44.2500°N, 7.4667°E)
Time: 06:10:10
(UTC+00:00)

Cosmos 44 Rocket - Pass Details

Date: 17 November 2025
Orbit: 637 x 741 km, 65.1° (Epoch: 09 December)

Event Time Altitude Azimuth Distance (km) Brightness Sun altitude
Rises 17:36:44 0° 221° (SW) 2,978 7.4 -17.0°
Reaches altitude 10° 17:39:01 10° 224° (SW) 2,084 6.5 -17.4°
Maximum altitude 17:43:43 66° 307° (NW) 745 3.5 -18.2°
Enters shadow 17:47:07 20° 26° (NNE) 1,595 4.8 -18.8°
